DLH112 GMMN-LPPT

Flight info

Callsign DLH112
Flight time 0h 54m
Altitude 36000
Route LAKAM UR722 AMSEL DCT VATZI
Aircraft A321/M-SDE3FGHIRWY/LB1

Departure

Time 2026-05-07 16:34
Airport Mohammed V International Airport (GMMN)

Arrival

Time 2026-05-07 17:29
Airport Lisbon Humberto Delgado Airport (LPPT)
Time Latitude Longitude Altitude Speed Heading
2026-05-07 15:50 33.36882 -7.58096 653 ft 0 kts 73°
2026-05-07 16:20 33.36881 -7.58098 651 ft 3 kts 73°
2026-05-07 16:20 33.36882 -7.58127 653 ft 3 kts 103°
2026-05-07 16:21 33.36888 -7.58149 654 ft 3 kts 113°
2026-05-07 16:21 33.36893 -7.58162 653 ft 3 kts 144°
2026-05-07 16:21 33.36909 -7.58172 652 ft 2 kts 174°
2026-05-07 16:21 33.36911 -7.58172 652 ft 0 kts 174°
2026-05-07 16:24 33.36910 -7.58172 651 ft 0 kts 174°
2026-05-07 16:24 33.36886 -7.58169 652 ft 7 kts 174°
2026-05-07 16:25 33.36832 -7.58159 651 ft 8 kts 163°
2026-05-07 16:25 33.36774 -7.58138 651 ft 9 kts 163°
2026-05-07 16:25 33.36709 -7.58115 651 ft 10 kts 163°
2026-05-07 16:25 33.36638 -7.58091 652 ft 11 kts 164°
2026-05-07 16:26 33.36561 -7.58074 652 ft 12 kts 188°
2026-05-07 16:26 33.36484 -7.58116 653 ft 13 kts 206°
2026-05-07 16:26 33.36400 -7.58133 653 ft 13 kts 164°
2026-05-07 16:26 33.36315 -7.58103 653 ft 9 kts 165°
2026-05-07 16:27 33.36274 -7.58134 653 ft 8 kts 236°
2026-05-07 16:27 33.36253 -7.58197 653 ft 9 kts 251°
2026-05-07 16:27 33.36209 -7.58238 653 ft 9 kts 183°
2026-05-07 16:27 33.36146 -7.58220 653 ft 10 kts 165°
2026-05-07 16:28 33.36079 -7.58198 654 ft 11 kts 164°
2026-05-07 16:28 33.36003 -7.58172 654 ft 13 kts 164°
2026-05-07 16:28 33.35911 -7.58140 655 ft 14 kts 164°
2026-05-07 16:28 33.35814 -7.58107 657 ft 15 kts 164°
2026-05-07 16:29 33.35712 -7.58073 655 ft 15 kts 164°
2026-05-07 16:29 33.35608 -7.58037 658 ft 16 kts 164°
2026-05-07 16:29 33.35500 -7.58000 656 ft 16 kts 164°
2026-05-07 16:29 33.35388 -7.57962 657 ft 15 kts 163°
2026-05-07 16:30 33.35315 -7.57942 657 ft 11 kts 185°
2026-05-07 16:30 33.35256 -7.57998 657 ft 11 kts 242°
2026-05-07 16:30 33.35240 -7.58060 657 ft 0 kts 253°
2026-05-07 16:30 33.35239 -7.58062 657 ft 1 kts 253°
2026-05-07 16:31 33.35237 -7.58073 657 ft 2 kts 253°
2026-05-07 16:31 33.35225 -7.58120 657 ft 11 kts 253°
2026-05-07 16:31 33.35204 -7.58212 658 ft 11 kts 263°
2026-05-07 16:31 33.35238 -7.58268 659 ft 7 kts 342°
2026-05-07 16:32 33.35243 -7.58270 659 ft 0 kts 342°
2026-05-07 16:33 33.35263 -7.58278 659 ft 12 kts 342°
2026-05-07 16:33 33.35512 -7.58368 656 ft 72 kts 345°
2026-05-07 16:33 33.36208 -7.58598 653 ft 133 kts 344°
2026-05-07 16:34 33.37258 -7.58957 658 ft 178 kts 345°
2026-05-07 16:34 33.38482 -7.59360 1168 ft 185 kts 346°
2026-05-07 16:34 33.39720 -7.59748 1868 ft 187 kts 346°
2026-05-07 16:34 33.40991 -7.60242 2229 ft 200 kts 337°
2026-05-07 16:35 33.42222 -7.61122 2553 ft 210 kts 325°
2026-05-07 16:35 33.43309 -7.62388 2843 ft 228 kts 311°
2026-05-07 16:35 33.44211 -7.63985 3354 ft 234 kts 306°
2026-05-07 16:35 33.45113 -7.65621 3944 ft 237 kts 304°
2026-05-07 16:36 33.46037 -7.67282 4534 ft 242 kts 303°
2026-05-07 16:36 33.47001 -7.68970 5108 ft 253 kts 308°
2026-05-07 16:36 33.48447 -7.70274 5470 ft 271 kts 338°
2026-05-07 16:36 33.50327 -7.70645 6076 ft 279 kts 356°
2026-05-07 16:37 33.52288 -7.70735 6679 ft 285 kts 356°
2026-05-07 16:37 33.54287 -7.70822 6890 ft 287 kts 357°
2026-05-07 16:37 33.56288 -7.70910 6956 ft 289 kts 357°
2026-05-07 16:37 33.58318 -7.71003 7460 ft 293 kts 356°
2026-05-07 16:38 33.60362 -7.71097 8174 ft 295 kts 357°
2026-05-07 16:38 33.62422 -7.71192 8849 ft 298 kts 356°
2026-05-07 16:38 33.64509 -7.71289 9494 ft 303 kts 356°
2026-05-07 16:38 33.66628 -7.71386 10076 ft 309 kts 356°
2026-05-07 16:39 33.68852 -7.71493 10219 ft 331 kts 356°
2026-05-07 16:39 33.71222 -7.71605 10358 ft 350 kts 356°
2026-05-07 16:39 33.73688 -7.71718 10809 ft 357 kts 356°
2026-05-07 16:39 33.76184 -7.71832 11365 ft 361 kts 356°
2026-05-07 16:40 33.78705 -7.71950 11930 ft 364 kts 355°
2026-05-07 16:40 33.81253 -7.72070 12495 ft 368 kts 355°
2026-05-07 16:40 33.83831 -7.72191 13053 ft 372 kts 355°
2026-05-07 16:40 33.86434 -7.72314 13607 ft 375 kts 355°
2026-05-07 16:41 33.89053 -7.72437 14110 ft 379 kts 354°
2026-05-07 16:41 33.91698 -7.72561 14606 ft 382 kts 354°
2026-05-07 16:41 33.94371 -7.72685 15120 ft 385 kts 354°
2026-05-07 16:41 33.97020 -7.72809 15623 ft 388 kts 354°
2026-05-07 16:42 33.99717 -7.72939 16164 ft 390 kts 353°
2026-05-07 16:42 34.02437 -7.73071 16668 ft 392 kts 353°
2026-05-07 16:42 34.05179 -7.73201 17147 ft 395 kts 353°
2026-05-07 16:42 34.07943 -7.73332 17623 ft 398 kts 353°
2026-05-07 16:43 34.10718 -7.73462 18095 ft 401 kts 353°
2026-05-07 16:43 34.13527 -7.73593 18520 ft 404 kts 352°
2026-05-07 16:43 34.16348 -7.73724 18926 ft 407 kts 352°
2026-05-07 16:43 34.19188 -7.73855 19335 ft 410 kts 352°
2026-05-07 16:44 34.22042 -7.74015 19726 ft 412 kts 352°
2026-05-07 16:44 34.24911 -7.74207 20136 ft 414 kts 351°
2026-05-07 16:44 34.27798 -7.74423 20523 ft 417 kts 351°
2026-05-07 16:44 34.30701 -7.74644 20904 ft 419 kts 351°
2026-05-07 16:45 34.33623 -7.74862 21292 ft 422 kts 351°
2026-05-07 16:45 34.36564 -7.75073 21666 ft 425 kts 351°
2026-05-07 16:45 34.39524 -7.75279 22033 ft 427 kts 351°
2026-05-07 16:45 34.42501 -7.75487 22398 ft 430 kts 351°
2026-05-07 16:46 34.45508 -7.75695 22760 ft 433 kts 351°
2026-05-07 16:46 34.48518 -7.75902 23120 ft 435 kts 351°
2026-05-07 16:46 34.51550 -7.76111 23491 ft 438 kts 351°
2026-05-07 16:46 34.54567 -7.76319 23792 ft 440 kts 351°
2026-05-07 16:47 34.57626 -7.76530 24127 ft 442 kts 351°
2026-05-07 16:47 34.60702 -7.76746 24460 ft 443 kts 351°
2026-05-07 16:47 34.63785 -7.76964 24797 ft 444 kts 351°
2026-05-07 16:47 34.66873 -7.77184 25133 ft 445 kts 351°
2026-05-07 16:48 34.69976 -7.77404 25462 ft 446 kts 351°
2026-05-07 16:48 34.73084 -7.77618 25790 ft 448 kts 351°
2026-05-07 16:48 34.76200 -7.77837 26109 ft 449 kts 351°
2026-05-07 16:48 34.79322 -7.78082 26407 ft 451 kts 350°
2026-05-07 16:49 34.82457 -7.78348 26702 ft 452 kts 350°
2026-05-07 16:49 34.85602 -7.78622 27014 ft 454 kts 350°
2026-05-07 16:49 34.88757 -7.78900 27304 ft 455 kts 350°
2026-05-07 16:49 34.91928 -7.79175 27602 ft 457 kts 350°
2026-05-07 16:50 34.95103 -7.79443 27900 ft 458 kts 350°
2026-05-07 16:50 34.98294 -7.79709 28193 ft 460 kts 350°
2026-05-07 16:50 35.01447 -7.79970 28482 ft 462 kts 350°
2026-05-07 16:50 35.04666 -7.80239 28748 ft 464 kts 350°
2026-05-07 16:51 35.07888 -7.80511 29022 ft 465 kts 350°
2026-05-07 16:51 35.11130 -7.80788 29295 ft 467 kts 350°
2026-05-07 16:51 35.14381 -7.81065 29565 ft 468 kts 350°
2026-05-07 16:51 35.17642 -7.81344 29821 ft 470 kts 350°
2026-05-07 16:52 35.20907 -7.81622 30058 ft 471 kts 350°
2026-05-07 16:52 35.24146 -7.81895 30259 ft 472 kts 350°
2026-05-07 16:52 35.27426 -7.82167 30502 ft 473 kts 349°
2026-05-07 16:52 35.30712 -7.82436 30706 ft 473 kts 349°
2026-05-07 16:53 35.33998 -7.82705 30953 ft 472 kts 349°
2026-05-07 16:53 35.37273 -7.82975 31222 ft 471 kts 349°
2026-05-07 16:53 35.40538 -7.83250 31484 ft 470 kts 349°
2026-05-07 16:53 35.43801 -7.83531 31741 ft 469 kts 349°
2026-05-07 16:54 35.47051 -7.83822 31998 ft 468 kts 348°
2026-05-07 16:54 35.50298 -7.84121 32276 ft 467 kts 348°
2026-05-07 16:54 35.53528 -7.84421 32596 ft 464 kts 348°
2026-05-07 16:54 35.56741 -7.84719 32909 ft 462 kts 348°
2026-05-07 16:55 35.59940 -7.85010 33190 ft 460 kts 348°
2026-05-07 16:55 35.63129 -7.85297 33442 ft 459 kts 348°
2026-05-07 16:55 35.66316 -7.85582 33697 ft 458 kts 348°
2026-05-07 16:55 35.69494 -7.85865 33945 ft 457 kts 348°
2026-05-07 16:56 35.72665 -7.86149 34163 ft 456 kts 348°
2026-05-07 16:56 35.75829 -7.86433 34373 ft 456 kts 348°
2026-05-07 16:56 35.82140 -7.87000 34777 ft 454 kts 347°
2026-05-07 16:57 35.85292 -7.87288 34980 ft 453 kts 347°
2026-05-07 16:57 35.88434 -7.87579 35184 ft 453 kts 347°
2026-05-07 16:57 35.91576 -7.87871 35387 ft 452 kts 347°
2026-05-07 16:57 35.94686 -7.88259 35585 ft 445 kts 341°
2026-05-07 16:58 35.97622 -7.89136 35783 ft 435 kts 333°
2026-05-07 16:58 36.00402 -7.90508 35934 ft 427 kts 325°
2026-05-07 16:58 36.05798 -7.93694 35948 ft 431 kts 325°
2026-05-07 16:59 36.11217 -7.96894 35949 ft 432 kts 325°
2026-05-07 16:59 36.16645 -8.00091 35947 ft 432 kts 326°
2026-05-07 17:00 36.22085 -8.03297 35949 ft 433 kts 325°
2026-05-07 17:00 36.27515 -8.06506 35972 ft 433 kts 325°
2026-05-07 17:01 36.32949 -8.09724 35968 ft 433 kts 325°
2026-05-07 17:01 36.38387 -8.12945 35963 ft 433 kts 325°
2026-05-07 17:02 36.43823 -8.16173 35965 ft 433 kts 325°
2026-05-07 17:02 36.49219 -8.19388 35982 ft 433 kts 325°
2026-05-07 17:03 36.54684 -8.22650 35972 ft 433 kts 325°
2026-05-07 17:03 36.60083 -8.25866 35962 ft 433 kts 325°
2026-05-07 17:04 36.65512 -8.29110 35957 ft 433 kts 325°
2026-05-07 17:04 36.70942 -8.32371 35977 ft 433 kts 325°
2026-05-07 17:05 36.76379 -8.35634 35961 ft 434 kts 325°
2026-05-07 17:05 36.81825 -8.38906 35946 ft 435 kts 325°
2026-05-07 17:06 36.87286 -8.42191 35939 ft 436 kts 325°
2026-05-07 17:06 36.92760 -8.45486 35926 ft 437 kts 325°
2026-05-07 17:07 36.98243 -8.48795 35964 ft 438 kts 325°
2026-05-07 17:07 37.03698 -8.52092 35962 ft 438 kts 325°
2026-05-07 17:08 37.09184 -8.55407 35791 ft 435 kts 325°
2026-05-07 17:08 37.11897 -8.57049 35321 ft 431 kts 325°
2026-05-07 17:08 37.13716 -8.58150 34896 ft 428 kts 325°
2026-05-07 17:09 37.16358 -8.59751 34375 ft 425 kts 325°
2026-05-07 17:09 37.19012 -8.61361 33739 ft 422 kts 325°
2026-05-07 17:09 37.21642 -8.62960 33027 ft 418 kts 326°
2026-05-07 17:09 37.24248 -8.64544 32322 ft 414 kts 326°
2026-05-07 17:10 37.26831 -8.66120 31728 ft 412 kts 326°
2026-05-07 17:10 37.29401 -8.67689 31023 ft 410 kts 327°
2026-05-07 17:10 37.31968 -8.69259 30294 ft 415 kts 327°
2026-05-07 17:10 37.34609 -8.70890 29360 ft 428 kts 328°
2026-05-07 17:11 37.37298 -8.72547 28414 ft 433 kts 328°
2026-05-07 17:11 37.40019 -8.74212 27511 ft 437 kts 329°
2026-05-07 17:11 37.42763 -8.75885 26612 ft 436 kts 329°
2026-05-07 17:11 37.45477 -8.77534 25758 ft 429 kts 329°
2026-05-07 17:12 37.48130 -8.79144 24991 ft 418 kts 329°
2026-05-07 17:12 37.50726 -8.80725 24255 ft 412 kts 329°
2026-05-07 17:12 37.53313 -8.82315 23528 ft 415 kts 329°
2026-05-07 17:12 37.55896 -8.83909 23098 ft 408 kts 329°
2026-05-07 17:13 37.58426 -8.85465 22824 ft 403 kts 329°
2026-05-07 17:13 37.61023 -8.86814 22553 ft 405 kts 338°
2026-05-07 17:13 37.63702 -8.87906 22125 ft 403 kts 338°
2026-05-07 17:13 37.66362 -8.88985 21670 ft 401 kts 338°
2026-05-07 17:14 37.69008 -8.90055 21212 ft 398 kts 338°
2026-05-07 17:14 37.71638 -8.91117 20756 ft 396 kts 338°
2026-05-07 17:14 37.74253 -8.92175 20305 ft 393 kts 338°
2026-05-07 17:14 37.76843 -8.93226 19856 ft 390 kts 338°
2026-05-07 17:15 37.79425 -8.94276 19400 ft 388 kts 338°
2026-05-07 17:15 37.81989 -8.95320 18966 ft 386 kts 338°
2026-05-07 17:15 37.84537 -8.96358 18517 ft 384 kts 339°
2026-05-07 17:15 37.87074 -8.97398 18055 ft 381 kts 339°
2026-05-07 17:16 37.89557 -8.98419 17596 ft 379 kts 339°
2026-05-07 17:16 37.92091 -8.99460 17156 ft 377 kts 339°
2026-05-07 17:16 37.94538 -9.00465 16717 ft 374 kts 339°
2026-05-07 17:16 37.97054 -9.01355 15937 ft 380 kts 345°
2026-05-07 17:17 37.99625 -9.02050 15518 ft 371 kts 347°
2026-05-07 17:17 38.02125 -9.02667 14787 ft 363 kts 347°
2026-05-07 17:17 38.04595 -9.03249 13992 ft 358 kts 348°
2026-05-07 17:17 38.07029 -9.03820 13135 ft 353 kts 348°
2026-05-07 17:18 38.09429 -9.04388 12253 ft 350 kts 348°
2026-05-07 17:18 38.11807 -9.04961 11432 ft 344 kts 348°
2026-05-07 17:18 38.14142 -9.05532 10628 ft 340 kts 348°
2026-05-07 17:18 38.16450 -9.06102 9833 ft 336 kts 348°
2026-05-07 17:19 38.18732 -9.06672 9067 ft 331 kts 348°
2026-05-07 17:19 38.20953 -9.07400 8821 ft 331 kts 341°
2026-05-07 17:19 38.23140 -9.08291 8368 ft 329 kts 340°
2026-05-07 17:19 38.25309 -9.09204 7847 ft 328 kts 339°
2026-05-07 17:20 38.27418 -9.10105 7478 ft 321 kts 339°
2026-05-07 17:20 38.29514 -9.11004 7055 ft 316 kts 339°
2026-05-07 17:20 38.31592 -9.11893 6560 ft 315 kts 339°
2026-05-07 17:20 38.33669 -9.12780 6050 ft 313 kts 340°
2026-05-07 17:21 38.35721 -9.13655 5607 ft 309 kts 339°
2026-05-07 17:21 38.37743 -9.14517 5184 ft 304 kts 339°
2026-05-07 17:21 38.39733 -9.15363 4750 ft 300 kts 339°
2026-05-07 17:21 38.41720 -9.16105 4333 ft 296 kts 346°
2026-05-07 17:22 38.43728 -9.16593 3916 ft 292 kts 347°
2026-05-07 17:22 38.45718 -9.17047 3485 ft 289 kts 346°
2026-05-07 17:22 38.47674 -9.17480 3088 ft 285 kts 347°
2026-05-07 17:22 38.49600 -9.17901 3000 ft 270 kts 348°
2026-05-07 17:23 38.51392 -9.18295 3011 ft 253 kts 348°
2026-05-07 17:23 38.53066 -9.18665 3011 ft 234 kts 346°
2026-05-07 17:23 38.54614 -9.19010 3018 ft 224 kts 347°
2026-05-07 17:23 38.56146 -9.19358 3020 ft 222 kts 346°
2026-05-07 17:24 38.57619 -9.19691 3021 ft 210 kts 347°
2026-05-07 17:24 38.59054 -9.20016 3017 ft 209 kts 346°
2026-05-07 17:24 38.60479 -9.20339 3014 ft 207 kts 347°
2026-05-07 17:24 38.61881 -9.20654 3017 ft 197 kts 346°
2026-05-07 17:25 38.63154 -9.20935 3014 ft 177 kts 346°
2026-05-07 17:25 38.64352 -9.20906 2922 ft 170 kts
2026-05-07 17:25 38.65430 -9.20372 2735 ft 161 kts 17°
2026-05-07 17:25 38.66436 -9.19835 2527 ft 154 kts 17°
2026-05-07 17:26 38.67407 -9.19318 2327 ft 150 kts 15°
2026-05-07 17:26 38.68363 -9.18809 2116 ft 148 kts 17°
2026-05-07 17:26 38.69311 -9.18304 1913 ft 148 kts 17°
2026-05-07 17:26 38.70256 -9.17800 1726 ft 147 kts 17°
2026-05-07 17:27 38.71196 -9.17299 1526 ft 146 kts 15°
2026-05-07 17:27 38.72138 -9.16797 1329 ft 147 kts 14°
2026-05-07 17:27 38.73090 -9.16289 1130 ft 148 kts 16°
2026-05-07 17:27 38.74032 -9.15786 933 ft 144 kts 17°
2026-05-07 17:28 38.74961 -9.15290 733 ft 145 kts 19°
2026-05-07 17:28 38.75895 -9.14791 558 ft 146 kts 20°
2026-05-07 17:28 38.76827 -9.14292 362 ft 144 kts 17°
2026-05-07 17:28 38.77643 -9.13863 355 ft 103 kts 22°
2026-05-07 17:29 38.78149 -9.13592 354 ft 61 kts 21°
2026-05-07 17:29 38.78355 -9.13382 352 ft 12 kts 63°
2026-05-07 17:29 38.78377 -9.13311 351 ft 6 kts 85°
2026-05-07 17:29 38.78377 -9.13307 350 ft 0 kts 90°
2026-05-07 17:30 38.78376 -9.13298 350 ft 3 kts 97°
2026-05-07 17:30 38.78347 -9.13263 357 ft 10 kts 163°
2026-05-07 17:30 38.78278 -9.13282 353 ft 11 kts 200°
2026-05-07 17:31 38.78202 -9.13318 352 ft 12 kts 201°
2026-05-07 17:31 38.78119 -9.13361 349 ft 12 kts 203°
2026-05-07 17:31 38.78112 -9.13365 355 ft 0 kts 203°
2026-05-07 17:34 38.78110 -9.13366 354 ft 1 kts 203°
2026-05-07 17:34 38.78070 -9.13384 350 ft 9 kts 195°
2026-05-07 17:34 38.77998 -9.13403 350 ft 11 kts 183°
2026-05-07 17:35 38.77914 -9.13387 350 ft 13 kts 168°
2026-05-07 17:35 38.77822 -9.13363 347 ft 14 kts 168°
2026-05-07 17:35 38.77717 -9.13335 347 ft 16 kts 168°
2026-05-07 17:35 38.77626 -9.13322 349 ft 10 kts 178°
2026-05-07 17:36 38.77592 -9.13295 350 ft 6 kts 89°
2026-05-07 17:36 38.77602 -9.13243 349 ft 5 kts 78°
2026-05-07 17:36 38.77606 -9.13216 347 ft 3 kts 78°
2026-05-07 17:36 38.77609 -9.13197 356 ft 2 kts 78°
2026-05-07 17:37 38.77611 -9.13187 355 ft 0 kts 78°